sat.trackr.live / text

‹ back to catalog

2025-155K

NORAD 64885 · 2025-155K

PAYLOAD ACTIVE UNKNOWN

§ Identity

Operator
Country
TBD
Launch date
2025-07-25
Launch site
VOSTO
Launch vehicle
Mass (kg)
RCS (m²)

External: N2YO · Heavens-Above · Gunter

§ Orbital elements

Epoch: 2026-05-25T04:29:37.976640Z

Period
93.61 min
Inclination
97.4492°
Eccentricity
0.0004640
Mean motion
15.38281953 rev/d
Perigee alt
448.0 km
Apogee alt
454.4 km
Semi-major
6,829.3 km
B*
5.5226e-4
RAAN
115.4236°
Arg perigee
223.1577°
Mean anomaly
136.9304°
Rev number
7,737

§ Raw data

2025-155K1 64885U 25155K   26145.18724510  .00020787  00000+0  55226-3 0  99912 64885  97.4492 115.4236 0004640 223.1577 136.9304 15.38281953 77376

JSON: /api/v1/satellites/64885 · /tle

For live sub-satellite position, see the globe view (requires WebGL).

§ Visibility from observer

Set your observer location to see the next 7 days of passes ≥ 10°. The values pass through the URL so the page stays shareable.

No JS? Fill the form by hand. The geolocation button needs JavaScript.